Henderson, NV

2:50 PM PST on December 17, 2017 (GMT -0800)
Henderson

Weather History for KHND - May, 2013

Change the Weather History Date:

Tuesday, May 28, 2013

  Actual Average (KLAS) Record (KLAS)
Temperature  
Mean Temperature 79 °F -  
Max Temperature 90 °F 92 °F 109 °F (2003)
Min Temperature 68 °F 65 °F 50 °F (1964)
Cooling Degree Days 14    
Growing Degree Days 29 (Base 50)    
Moisture  
Dew Point 28 °F    
Average Humidity 16    
Maximum Humidity 26    
Minimum Humidity 8    
Precipitation  
Precipitation 0.00 in - - ()
Sea Level Pressure  
Sea Level Pressure 29.61 in    
Wind  
Wind Speed 15 mph (West)    
Max Wind Speed 22 mph    
Max Gust Speed 28 mph    
Visibility 10 miles    
Events      
Averages and records for this station are not official NWS values.
T = Trace of Precipitation, MM = Missing Value Source: NWS Daily Summary

Daily Weather History Graph

Daily Weather History Graph

Search for Another Location

Airport or City:

Trip Planner

Search our weather history database for the weather conditions in past years. The results will help you decide how hot, cold, wet, or windy it might be!

Date:

Astronomy

May. 28, 2013 Rise Set
Actual Time 5:26 AM PDT 7:49 PM PDT
Civil Twilight 4:57 AM PDT 8:18 PM PDT
Nautical Twilight 4:20 AM PDT 8:55 PM PDT
Astronomical Twilight 3:41 AM PDT 9:35 PM PDT
Moon 11:20 PM PDT (5/28) 9:16 AM PDT (5/28)
Length of Visible Light 15h 21m
Length of Day
14h 22m
Waning Gibbous, 82% of the Moon is Illuminated
May 28
Waning Gibbous
May 31
Last Quarter
Jun 8
New
Jun 16
First Quarter
Jun 23
Full

Hourly Weather History & Observations

Time (PDT) Temp. Dew Point Humidity Pressure Visibility Wind Dir Wind Speed Gust Speed Precip Events Conditions
12:56 AM 73.9 °F 30.0 °F 20% 29.62 in 10.0 mi SSW 21.9 mph - N/A   Clear
1:56 AM 72.0 °F 31.1 °F 22% 29.64 in 10.0 mi South 15.0 mph - N/A   Clear
2:56 AM 70.9 °F 31.1 °F 23% 29.64 in 10.0 mi South 15.0 mph - N/A   Clear
3:56 AM 70.0 °F 32.0 °F 25% 29.63 in 10.0 mi SSE 10.4 mph - N/A   Clear
4:56 AM 68.9 °F 32.0 °F 25% 29.62 in 10.0 mi SSW 18.4 mph - N/A   Clear
5:56 AM 68.0 °F 32.0 °F 26% 29.62 in 10.0 mi SSW 13.8 mph - N/A   Clear
6:56 AM 68.9 °F 32.0 °F 25% 29.63 in 10.0 mi SSW 15.0 mph - N/A   Clear
7:56 AM 72.9 °F 32.9 °F 23% 29.63 in 10.0 mi SSW 17.3 mph - N/A   Clear
8:56 AM 75.9 °F 32.9 °F 21% 29.63 in 10.0 mi SSW 15.0 mph - N/A   Clear
9:56 AM 79.0 °F 32.9 °F 19% 29.63 in 10.0 mi SW 10.4 mph - N/A   Clear
10:56 AM 81.9 °F 32.9 °F 17% 29.63 in 10.0 mi West 3.5 mph - N/A   Partly Cloudy
11:56 AM 84.9 °F 31.1 °F 14% 29.61 in 10.0 mi SSW 8.1 mph - N/A   Clear
12:56 PM 86.0 °F 30.0 °F 13% 29.60 in 10.0 mi Calm Calm - N/A   Clear
1:56 PM 88.9 °F 32.0 °F 13% 29.58 in 10.0 mi North 8.1 mph - N/A   Clear
2:56 PM 88.9 °F 32.0 °F 13% 29.56 in 10.0 mi WNW 11.5 mph - N/A   Partly Cloudy
3:56 PM 88.9 °F 32.9 °F 14% 29.55 in 10.0 mi Variable 3.5 mph - N/A   Partly Cloudy
4:56 PM 88.9 °F 27.1 °F 11% 29.56 in 10.0 mi NNW 13.8 mph - N/A   Clear
5:56 PM 90.0 °F 21.0 °F 8% 29.56 in 10.0 mi NNW 20.7 mph 27.6 mph N/A   Clear
6:56 PM 86.9 °F 20.1 °F 9% 29.58 in 10.0 mi North 18.4 mph 23.0 mph N/A   Clear
7:56 PM 83.8 °F 19.0 °F 9% 29.59 in 10.0 mi NNW 15.0 mph 23.0 mph N/A   Clear
8:56 PM 81.9 °F 15.1 °F 8% 29.61 in 10.0 mi NNW 16.1 mph - N/A   Clear
9:56 PM 81.0 °F 15.1 °F 8% 29.64 in 10.0 mi NNW 21.9 mph 27.6 mph N/A   Clear
10:56 PM 79.0 °F 16.2 °F 9% 29.66 in 10.0 mi North 15.0 mph - N/A   Clear
11:56 PM 75.9 °F 20.1 °F 12% 29.69 in 10.0 mi NE 9.2 mph - N/A   Clear